| time (UTC) | temp C | wind direction | speed KPH | gust KPH | rain 1hr cm | rain 24hr cm | rain mn cm | humidity % | barometer mb |
| 20260831010011 | 20 | 279 | 1.6 | 0.0 | 0.00 | 0.00 | 0.00 | 29 | 1015.3 |
| 20260831004515 | 20 | 279 | 3.2 | 0.0 | 0.00 | 0.00 | 0.00 | 28 | 1015.4 |
| 20260831003053 | 21 | 279 | 1.6 | 0.0 | 0.00 | 0.00 | 0.00 | 29 | 1015.4 |
| 20260831001550 | 20 | 279 | 3.2 | 0.0 | 0.00 | 0.00 | 0.00 | 30 | 1015.5 |
| 20260831000039 | 20 | 278 | 6.4 | 0.0 | 0.00 | 0.00 | 0.00 | 31 | 1015.6 |
| 20260830234531 | 20 | 286 | 9.7 | 0.0 | 0.00 | 0.00 | 0.00 | 31 | 1015.7 |
| 20260830233020 | 20 | 276 | 9.7 | 0.0 | 0.00 | 0.00 | 0.00 | 31 | 1015.8 |
| 20260830231512 | 21 | 299 | 3.2 | 0.0 | 0.00 | 0.00 | 0.00 | 32 | 1015.8 |
| 20260830230111 | 20 | 309 | 6.4 | 0.0 | 0.00 | 0.00 | 0.00 | 32 | 1015.8 |
| 20260830224553 | 20 | 56 | 3.2 | 0.0 | 0.00 | 0.00 | 0.00 | 33 | 1016.0 |
| 20260830223051 | 20 | 292 | 3.2 | 0.0 | 0.00 | 0.00 | 0.00 | 33 | 1016.2 |
| 20260830221534 | 20 | 296 | 9.7 | 0.0 | 0.00 | 0.00 | 0.00 | 34 | 1016.3 |
| 20260830220053 | 21 | 290 | 3.2 | 0.0 | 0.00 | 0.00 | 0.00 | 33 | 1016.3 |
| 20260830214517 | 20 | 294 | 6.4 | 0.0 | 0.00 | 0.00 | 0.00 | 34 | 1016.4 |
| 20260830213018 | 20 | 302 | 1.6 | 0.0 | 0.00 | 0.00 | 0.00 | 36 | 1016.5 |
| 20260830211554 | 19 | 299 | 3.2 | 0.0 | 0.00 | 0.00 | 0.00 | 35 | 1016.6 |
| 20260830210051 | 19 | 319 | 4.8 | 0.0 | 0.00 | 0.00 | 0.00 | 37 | 1016.8 |
| 20260830204548 | 18 | 272 | 8.0 | 0.0 | 0.00 | 0.00 | 0.00 | 37 | 1016.9 |
| 20260830203032 | 19 | 273 | 12.9 | 0.0 | 0.00 | 0.00 | 0.00 | 37 | 1016.8 |
| 20260830201513 | 19 | 290 | 4.8 | 0.0 | 0.00 | 0.00 | 0.00 | 37 | 1016.8 |
| 20260830200011 | 19 | 304 | 1.6 | 0.0 | 0.00 | 0.00 | 0.00 | 38 | 1016.9 |
| 20260830194552 | 18 | 306 | 1.6 | 0.0 | 0.00 | 0.00 | 0.00 | 38 | 1017.0 |
| 20260830193052 | 18 | 283 | 8.0 | 0.0 | 0.00 | 0.00 | 0.00 | 37 | 1017.1 |
| 20260830191612 | 18 | 277 | 4.8 | 0.0 | 0.00 | 0.00 | 0.00 | 36 | 1017.1 |
| 20260830190037 | 18 | 261 | 3.2 | 0.0 | 0.00 | 0.00 | 0.00 | 36 | 1017.2 |
| 20260830184515 | 17 | 277 | 8.0 | 0.0 | 0.00 | 0.00 | 0.00 | 37 | 1017.2 |
| 20260830183011 | 17 | 203 | 4.8 | 0.0 | 0.00 | 0.00 | 0.00 | 39 | 1017.3 |
| 20260830181553 | 17 | 288 | 6.4 | 0.0 | 0.00 | 0.00 | 0.00 | 40 | 1017.4 |
| 20260830180055 | 17 | 257 | 6.4 | 0.0 | 0.00 | 0.00 | 0.00 | 42 | 1017.5 |
| 20260830174535 | 16 | 285 | 6.4 | 0.0 | 0.00 | 0.00 | 0.00 | 42 | 1017.4 |
| 20260830173031 | 16 | 285 | 0.0 | 0.0 | 0.00 | 0.00 | 0.00 | 42 | 1017.4 |
| 20260830171512 | 15 | 281 | 4.8 | 0.0 | 0.00 | 0.00 | 0.00 | 45 | 1017.5 |
| 20260830170011 | 15 | 198 | 4.8 | 0.0 | 0.00 | 0.00 | 0.00 | 45 | 1017.5 |
| 20260830164550 | 15 | 292 | 0.0 | 0.0 | 0.00 | 0.00 | 0.00 | 47 | 1017.5 |
| 20260830163048 | 15 | 292 | 0.0 | 0.0 | 0.00 | 0.00 | 0.00 | 48 | 1017.7 |
| 20260830161527 | 13 | 292 | 0.0 | 0.0 | 0.00 | 0.00 | 0.00 | 51 | 1017.7 |
| 20260830160033 | 13 | 292 | 0.0 | 0.0 | 0.00 | 0.00 | 0.00 | 52 | 1017.9 |
| 20260830154507 | 12 | 292 | 0.0 | 0.0 | 0.00 | 0.00 | 0.00 | 54 | 1017.8 |
| 20260830153103 | 12 | 292 | 0.0 | 0.0 | 0.00 | 0.00 | 0.00 | 57 | 1018.0 |
| 20260830151539 | 11 | 292 | 0.0 | 0.0 | 0.00 | 0.00 | 0.00 | 64 | 1018.0 |
| 20260830150041 | 8 | 292 | 0.0 | 0.0 | 0.00 | 0.00 | 0.00 | 75 | 1018.1 |
| 20260830144521 | 6 | 292 | 0.0 | 0.0 | 0.00 | 0.00 | 0.00 | 80 | 1018.0 |
| 20260830143009 | 5 | 292 | 0.0 | 0.0 | 0.00 | 0.00 | 0.00 | 79 | 1017.9 |
| 20260830141549 | 4 | 292 | 0.0 | 0.0 | 0.00 | 0.00 | 0.00 | 82 | 1017.8 |
| 20260830140046 | 3 | 292 | 0.0 | 0.0 | 0.00 | 0.00 | 0.00 | 81 | 1017.5 |
| 20260830134526 | 3 | 292 | 0.0 | 0.0 | 0.00 | 0.00 | 0.00 | 82 | 1017.4 |
| 20260830133024 | 3 | 292 | 0.0 | 0.0 | 0.00 | 0.00 | 0.00 | 80 | 1017.3 |
| 20260830131505 | 3 | 292 | 0.0 | 0.0 | 0.00 | 0.00 | 0.00 | 79 | 1017.2 |
| 20260830130004 | 3 | 292 | 0.0 | 0.0 | 0.00 | 0.00 | 0.00 | 78 | 1017.0 |
| 20260830124543 | 3 | 292 | 0.0 | 0.0 | 0.00 | 0.00 | 0.00 | 77 | 1016.9 |
| 20260830123041 | 4 | 292 | 0.0 | 0.0 | 0.00 | 0.00 | 0.00 | 77 | 1016.6 |
| 20260830121522 | 4 | 292 | 0.0 | 0.0 | 0.00 | 0.00 | 0.00 | 76 | 1016.6 |
| 20260830120022 | 4 | 292 | 0.0 | 0.0 | 0.00 | 0.00 | 0.00 | 76 | 1016.6 |
| 20260830114600 | 5 | 292 | 0.0 | 0.0 | 0.00 | 0.00 | 0.00 | 75 | 1016.4 |
| 20260830113059 | 5 | 292 | 0.0 | 0.0 | 0.00 | 0.00 | 0.00 | 76 | 1016.3 |
| 20260830111543 | 5 | 292 | 0.0 | 0.0 | 0.00 | 0.00 | 0.00 | 75 | 1016.3 |
| 20260830110040 | 5 | 292 | 0.0 | 0.0 | 0.00 | 0.00 | 0.00 | 74 | 1016.2 |
| 20260830104526 | 5 | 292 | 0.0 | 0.0 | 0.00 | 0.00 | 0.00 | 73 | 1016.2 |
| 20260830103025 | 5 | 292 | 0.0 | 0.0 | 0.00 | 0.00 | 0.00 | 74 | 1016.1 |
| 20260830101502 | 5 | 292 | 0.0 | 0.0 | 0.00 | 0.00 | 0.00 | 75 | 1015.9 |
| 20260830100002 | 5 | 292 | 0.0 | 0.0 | 0.00 | 0.00 | 0.00 | 75 | 1015.9 |
| 20260830094548 | 5 | 292 | 0.0 | 0.0 | 0.00 | 0.00 | 0.00 | 75 | 1015.8 |
| 20260830093044 | 5 | 292 | 0.0 | 0.0 | 0.00 | 0.00 | 0.00 | 74 | 1015.6 |
| 20260830091544 | 5 | 292 | 0.0 | 0.0 | 0.00 | 0.00 | 0.00 | 73 | 1015.7 |
| 20260830090041 | 5 | 292 | 0.0 | 0.0 | 0.00 | 0.00 | 0.00 | 71 | 1015.6 |
| 20260830084543 | 5 | 292 | 0.0 | 0.0 | 0.00 | 0.00 | 0.00 | 70 | 1015.5 |
| 20260830083045 | 5 | 292 | 0.0 | 0.0 | 0.00 | 0.00 | 0.00 | 70 | 1015.4 |
| 20260830081539 | 6 | 292 | 0.0 | 0.0 | 0.00 | 0.00 | 0.00 | 69 | 1015.3 |
| 20260830080040 | 6 | 292 | 0.0 | 0.0 | 0.00 | 0.00 | 0.00 | 68 | 1015.3 |
| 20260830074534 | 6 | 292 | 0.0 | 0.0 | 0.00 | 0.00 | 0.00 | 66 | 1015.1 |
| 20260830073030 | 7 | 292 | 0.0 | 0.0 | 0.00 | 0.00 | 0.00 | 64 | 1015.1 |
| 20260830071533 | 7 | 292 | 0.0 | 0.0 | 0.00 | 0.00 | 0.00 | 62 | 1015.1 |
| 20260830070050 | 8 | 292 | 0.0 | 0.0 | 0.00 | 0.00 | 0.00 | 61 | 1015.0 |
| 20260830064531 | 8 | 292 | 0.0 | 0.0 | 0.00 | 0.00 | 0.00 | 61 | 1014.9 |
| 20260830063034 | 8 | 292 | 0.0 | 0.0 | 0.00 | 0.00 | 0.00 | 60 | 1014.9 |
| 20260830061509 | 8 | 292 | 0.0 | 0.0 | 0.00 | 0.00 | 0.00 | 56 | 1014.8 |
| 20260830060012 | 10 | 292 | 0.0 | 0.0 | 0.00 | 0.00 | 0.00 | 53 | 1014.6 |
| 20260830054549 | 11 | 292 | 0.0 | 0.0 | 0.00 | 0.00 | 0.00 | 50 | 1014.6 |
| 20260830053052 | 12 | 292 | 0.0 | 0.0 | 0.00 | 0.00 | 0.00 | 47 | 1014.6 |
| 20260830051536 | 13 | 292 | 0.0 | 0.0 | 0.00 | 0.00 | 0.00 | 45 | 1014.7 |
| 20260830050028 | 13 | 292 | 0.0 | 0.0 | 0.00 | 0.00 | 0.00 | 43 | 1014.7 |
| 20260830044511 | 14 | 292 | 0.0 | 0.0 | 0.00 | 0.00 | 0.00 | 42 | 1014.6 |
| 20260830043010 | 15 | 292 | 0.0 | 0.0 | 0.00 | 0.00 | 0.00 | 40 | 1014.6 |
| 20260830041603 | 15 | 292 | 0.0 | 0.0 | 0.00 | 0.00 | 0.00 | 39 | 1014.5 |
| 20260830040054 | 15 | 292 | 1.6 | 0.0 | 0.00 | 0.00 | 0.00 | 38 | 1014.4 |
| 20260830034532 | 15 | 291 | 1.6 | 0.0 | 0.00 | 0.00 | 0.00 | 38 | 1014.4 |
| 20260830033037 | 15 | 291 | 1.6 | 0.0 | 0.00 | 0.00 | 0.00 | 37 | 1014.2 |
| 20260830031515 | 15 | 291 | 3.2 | 0.0 | 0.00 | 0.00 | 0.00 | 36 | 1013.9 |
| 20260830030023 | 16 | 292 | 0.0 | 0.0 | 0.00 | 0.00 | 0.00 | 37 | 1013.5 |
| 20260830024602 | 16 | 292 | 1.6 | 0.0 | 0.00 | 0.00 | 0.00 | 37 | 1013.4 |
| 20260830023108 | 16 | 292 | 4.8 | 0.0 | 0.00 | 0.00 | 0.00 | 36 | 1013.1 |
| 20260830021529 | 16 | 293 | 1.6 | 0.0 | 0.00 | 0.00 | 0.00 | 37 | 1013.1 |
| 20260830020038 | 16 | 293 | 4.8 | 0.0 | 0.00 | 0.00 | 0.00 | 38 | 1013.1 |
| 20260830014514 | 16 | 297 | 3.2 | 0.0 | 0.00 | 0.00 | 0.00 | 38 | 1013.0 |
| 20260830013010 | 16 | 298 | 8.0 | 0.0 | 0.00 | 0.00 | 0.00 | 38 | 1012.8 |
| 20260830011603 | 17 | 299 | 9.7 | 0.0 | 0.00 | 0.00 | 0.00 | 38 | 1012.6 |